Tracking 28514 objects as of 23-Feb-2024
HD Live streaming from Space Station
objects crossing your sky now

GRBALPHA

Track GRBALPHA now!
10-day predictions
GRBALPHA is classified as:


NORAD ID: 47941
Int'l Code: 2021-022K
Perigee: 508.3 km
Apogee: 531.0 km
Inclination: 97.5 °
Period: 94.9 minutes
Semi major axis: 6890 km
RCS: Unknown
Launch date: March 22, 2021
Source: (TBD)
Launch site: TYURATAM MISSILE AND SPACE COMPLEX (TTMTR)

Uplink (MHz):
Downlink (MHz): 435.310
Beacon (MHz):
Mode: 1k2 FSK 9k6 GMSK
Call sign:
Status: Unknown

Your satellite tracking list
Your tracking list is empty




NASA's NSSDC Master Catalog

Two Line Element Set (TLE):
1 47941U 21022K   24054.46017486  .00010862  00000-0  53846-3 0  9999
2 47941  97.4750 312.4955 0016484 179.0108 181.1161 15.17798140161041
Source of the keplerian elements: AFSPC